Location: Newark
(44.3681°N, 100.3364°W)
Time: 12:29:02
(UTC+00:00)

S-56A Canister/Altair - Pass Details

Date: 08 March 2020
Orbit: 634 x 2498 km, 38.9° (Epoch: 04 April)

Event Time Altitude Azimuth Distance (km) Brightness Sun altitude
Rises 19:14:54 0° 283° (WNW) 5,608 11.9 40.9°
Reaches altitude 10° 19:18:41 10° 275° (W) 4,797 11.7 40.8°
Maximum altitude 19:30:53 37° 216° (SW) 3,412 12.6 40.4°
Drops below altitude 10° 19:43:44 10° 156° (SSE) 5,022 12.4 39.8°
Sets 19:47:52 0° 149° (SSE) 5,889 12.5 39.6°
